Home > Weather > Holguín > Past weeks

Flag for Cuba Past Weather in Holguín, Cuba — Yesterday and Last 2 Weeks

Now
82 °F

Passing clouds.


Feels Like: 87 °F
Forecast: 73 / 88 °F
Wind: 3 mph from Southeast

Location: Holguin Civ / Mil

Current Time: Jun 28, 2016 at 9:22:24 AM

Latest Report: Jun 28, 2016 at 8:50 AM


Visibility: 6 mi

Pressure: 30.01 "Hg

Humidity: 70%

Dew Point: 72 °F

Location of HolguínLocation

Past Weather in Holguín — Graph

°F

Holguín Temperature Yesterday

Maximum temperature yesterday: 91 °F (at 1:55 PM)
Minimum temperature yesterday: 73 °F (at 5:51 AM)
Average temperature yesterday: 81 °F

High & Low Weather Summary for the Past Weeks

 TemperatureHumidityPressure
High93 °F (Jun 16, 2:50 PM)94% (Jun 13, 7:55 AM)30.12 "Hg (Jun 13, 7:55 AM)
Low70 °F (Jun 13, 9:51 PM)32% (Jun 17, 3:50 PM)29.95 "Hg (Jun 17, 4:50 PM)
Average80 °F74%30.03 "Hg
* Reported Jun 13 7:55 AM — Jun 28 7:50 AM, Holguín, Weather by CustomWeather, © 2016

Note: Actual official high and low records may vary slightly from our data, if they occured in-between our weather recording intervals... More about our weather records

Advertising

Holguín Weather History for the Previous 24 Hours

Scroll right to see more
 ConditionsComfort  
Time TempWeatherWind HumidityBarometerVisibility
7:50 AM
Tue, Jun 28
79 °FPassing clouds.5 mph84%30.01 "Hg5 mi
6:50 AM73 °FFog.5 mph94%29.98 "Hg4 mi
5:50 AM73 °FPassing clouds.6 mph94%29.98 "Hg6 mi
4:51 AM73 °FClear.3 mph89%29.95 "Hg6 mi
3:50 AM73 °FClear.3 mph94%29.95 "Hg6 mi
2:51 AM75 °FClear.5 mph89%29.95 "Hg6 mi
1:50 AM73 °FClear.3 mph94%29.98 "Hg6 mi
12:50 AM75 °FPassing clouds.1 mph89%30.01 "Hg6 mi
11:50 PM
Mon, Jun 27
75 °FPassing clouds.1 mph89%30.01 "Hg6 mi
10:50 PM77 °FPassing clouds.2 mph83%30.01 "Hg6 mi
9:50 PM79 °FPassing clouds.3 mph79%30.01 "HgN/A
8:50 PM81 °FPassing clouds.7 mph74%30.01 "HgN/A
7:50 PM82 °FScattered clouds.7 mph66%29.98 "HgN/A
6:50 PM84 °FScattered clouds.8 mph62%29.95 "HgN/A
5:50 PM86 °FScattered clouds.13 mph59%29.95 "Hg6 mi
4:50 PM86 °FScattered clouds.15 mph62%29.95 "Hg6 mi
3:55 PM84 °FThundershowers. Partly sunny.15 mph55%29.95 "Hg5 mi
2:55 PM88 °FThundershowers. Partly sunny.13 mph55%29.98 "Hg5 mi
1:55 PM91 °FScattered clouds.8 mph46%29.98 "HgN/A
12:50 PM90 °FScattered clouds.8 mph46%30.01 "HgN/A
11:50 AM88 °FScattered clouds.9 mph55%30.01 "HgN/A
10:50 AM86 °FScattered clouds.8 mph62%30.01 "HgN/A
9:50 AM82 °FScattered clouds.6 mph74%30.01 "HgN/A
Weather by CustomWeather, © 2016

See weather overviewHow to use our weather pages